Flag Weather past 2 weeks in Ratingen, North Rhine-Westphalia, Germany

Now
36 °F

Passing clouds.


Feels Like: 29 °F
Forecast: 38 / 45 °F
Wind: 9 mph from Southeast

Location: Duesseldorf

Current Time: Nov 29, 2014 at 7:21:12 AM

Latest Report: Nov 29, 2014 at 6:50 AM


Visibility: N/A

Pressure: 29.95 "Hg

Humidity: 100%

Dew point: 36 °F

Location of RatingenLocation

Historic Weather in Ratingen — Graph

°F

Ratingen temperature yesterday

Maximum temperature yesterday: 50 °F (at 12:50 PM)
Minimum temperature yesterday: 34 °F (at 11:50 PM)
Average temperature yesterday: 43 °F

Past Weeks' High & Low Weather Summary

 TemperatureHumidityPressure
High59 °F (Nov 23, 1:50 PM)100% (Nov 16, 6:50 AM)30.33 "Hg (Nov 16, 6:50 AM)
Low30 °F (Nov 25, 3:50 AM)58% (Nov 21, 1:50 PM)29.50 "Hg (Nov 16, 4:20 PM)
Average46 °F83%29.94 "Hg
* Reported Nov 14 6:20 AM — Nov 29 6:20 AM, Ratingen, Weather by CustomWeather, © 2014

Note: Actual official high and low records may vary slightly from our data, if they occured in-between our weather recording intervals... More about our weather records

Advertising

Ratingen weather history for previous 24 hours

 ConditionsComfort  
Time TempWeatherWind HumidityBarometerVisibility
6:20 AM
Nov 29
34 °FPassing clouds.7 mph93%29.95 "HgN/A
5:50 AM34 °FPassing clouds.6 mph93%29.95 "HgN/A
5:20 AM32 °FPassing clouds.8 mph100%29.95 "HgN/A
4:50 AM30 °FPassing clouds.7 mph93%29.95 "HgN/A
4:20 AM34 °FClear.6 mph93%29.95 "Hg10 mi
3:50 AM34 °FClear.6 mph93%29.92 "Hg10 mi
3:20 AM32 °FClear.7 mph93%29.92 "Hg10 mi
2:50 AM32 °FClear.7 mph93%29.92 "Hg10 mi
2:20 AM32 °FClear.6 mph100%29.92 "Hg10 mi
1:50 AM34 °FClear.6 mph93%29.92 "Hg10 mi
1:20 AM32 °FClear.7 mph100%29.92 "Hg10 mi
12:50 AM34 °FClear.7 mph93%29.92 "Hg10 mi
12:20 AM34 °FClear.7 mph93%29.92 "Hg10 mi
11:50 PM
Nov 28
34 °FFog.7 mph100%29.92 "HgN/A
11:20 PM36 °FFog.5 mph93%29.92 "HgN/A
10:50 PM36 °FFog.8 mph93%29.92 "HgN/A
10:20 PM37 °FFog.3 mph93%29.92 "HgN/A
9:50 PM36 °FClear.6 mph93%29.89 "Hg10 mi
9:20 PM37 °FClear.9 mph87%29.89 "Hg10 mi
8:50 PM36 °FClear.7 mph93%29.89 "Hg10 mi
8:20 PM37 °FClear.6 mph93%29.89 "Hg10 mi
7:50 PM39 °FClear.6 mph87%29.86 "Hg10 mi
7:20 PM39 °FClear.6 mph93%29.86 "Hg10 mi
6:50 PM39 °FClear.8 mph87%29.86 "Hg10 mi
6:20 PM41 °FClear.7 mph81%29.86 "Hg10 mi
5:50 PM43 °FClear.7 mph76%29.86 "Hg10 mi
5:20 PM45 °FClear.7 mph76%29.83 "Hg10 mi
4:50 PM45 °FClear.8 mph76%29.83 "Hg10 mi
4:20 PM46 °FSunny.9 mph71%29.83 "Hg10 mi
3:50 PM48 °FSunny.6 mph71%29.83 "Hg10 mi
3:20 PM50 °FSunny.7 mph67%29.80 "Hg10 mi
2:50 PM50 °FSunny.7 mph67%29.80 "Hg10 mi
2:20 PM50 °FSunny.7 mph67%29.80 "Hg10 mi
1:50 PM50 °FSunny.9 mph67%29.80 "Hg10 mi
1:20 PM50 °FSunny.7 mph67%29.80 "Hg10 mi
12:50 PM50 °FSunny.8 mph71%29.80 "Hg10 mi
12:20 PM48 °FSunny.8 mph71%29.80 "Hg10 mi
11:50 AM46 °FSunny.10 mph76%29.80 "Hg10 mi
11:20 AM46 °FSunny.8 mph76%29.80 "Hg10 mi
10:50 AM46 °FSunny.10 mph76%29.80 "Hg10 mi
10:20 AM46 °FSunny.9 mph76%29.80 "Hg10 mi
9:50 AM45 °FSunny.9 mph81%29.80 "Hg10 mi
9:20 AM45 °FSunny.9 mph76%29.80 "Hg10 mi
8:50 AM45 °FSunny.7 mph76%29.80 "Hg10 mi
8:20 AM45 °FSunny.8 mph76%29.77 "Hg10 mi
7:50 AM45 °FClear.8 mph76%29.77 "Hg10 mi
7:20 AM45 °FClear.8 mph76%29.77 "Hg10 mi
Weather by CustomWeather, © 2014

See weather overviewHow to use our weather pages